AFR758 LFPG-TFFR

Flight info

Callsign AFR758
Flight time N/A
Altitude 34000
Route LGL UN491 UPALO/N0485F330 UN585 FEJAC DCT BADUR DCT REGHI/M084F340 DCT ETIKI DCT 47N015W 46N020W 40N030W 33N040W/M084F360 29N045W 25N050W 21N055W DCT BNJEE/N0490F360 DCT BOSET BOSET2A
Aircraft B77W/H-SDE1E2E3FGHIJ2J3J4J5M1RWXY/LB1D1

Departure

Time N/A
Airport Charles de Gaulle International Airport (LFPG)

Arrival

Time 2026-04-29 20:55
Airport Maryse Condé International Airport (TFFR)
Time Latitude Longitude Altitude Speed Heading
2026-04-29 13:32 48.04394 -7.73133 33957 ft 498 kts 253°
2026-04-29 13:32 48.03576 -7.78165 33959 ft 500 kts 253°
2026-04-29 13:33 48.01938 -7.88202 33969 ft 499 kts 253°
2026-04-29 13:33 48.00310 -7.98247 33961 ft 500 kts 257°
2026-04-29 13:34 47.99855 -8.08639 33964 ft 503 kts 269°
2026-04-29 13:34 47.99950 -8.19062 33976 ft 506 kts 269°
2026-04-29 13:35 48.00005 -8.29520 33972 ft 505 kts 269°
2026-04-29 13:35 48.00032 -8.39949 33973 ft 507 kts 269°
2026-04-29 13:36 48.00038 -8.50441 33985 ft 505 kts 269°
2026-04-29 13:36 48.00029 -8.60870 33979 ft 506 kts 269°
2026-04-29 13:37 48.00006 -8.71349 33975 ft 506 kts 268°
2026-04-29 13:37 47.99115 -8.81719 33987 ft 505 kts 257°
2026-04-29 13:38 47.97780 -8.91938 33983 ft 504 kts 257°
2026-04-29 13:38 47.96424 -9.02201 33984 ft 504 kts 257°
2026-04-29 13:39 47.95068 -9.12391 33982 ft 505 kts 257°
2026-04-29 13:39 47.93690 -9.22668 33992 ft 507 kts 258°
2026-04-29 13:40 47.92304 -9.32928 33986 ft 506 kts 258°
2026-04-29 13:40 47.90912 -9.43161 33992 ft 507 kts 258°
2026-04-29 13:41 47.89504 -9.53438 33988 ft 507 kts 258°
2026-04-29 13:41 47.88084 -9.63725 33998 ft 509 kts 258°
2026-04-29 13:42 47.86660 -9.73975 33991 ft 507 kts 258°
2026-04-29 13:42 47.85227 -9.84221 33998 ft 509 kts 258°
2026-04-29 13:43 47.83783 -9.94472 33994 ft 507 kts 258°
2026-04-29 13:43 47.82323 -10.04765 33998 ft 509 kts 258°
2026-04-29 13:44 47.80864 -10.14977 34006 ft 509 kts 258°
2026-04-29 13:44 47.79389 -10.25239 34004 ft 507 kts 258°
2026-04-29 13:45 47.77907 -10.35474 34011 ft 510 kts 259°
2026-04-29 13:45 47.76422 -10.45669 34011 ft 508 kts 258°
2026-04-29 13:46 47.74914 -10.55948 34021 ft 509 kts 259°
2026-04-29 13:46 47.73405 -10.66159 34013 ft 507 kts 258°
2026-04-29 13:47 47.71879 -10.76431 34016 ft 510 kts 258°
2026-04-29 13:47 47.70355 -10.86610 34008 ft 506 kts 259°
2026-04-29 13:48 47.68829 -10.96745 34010 ft 508 kts 259°
2026-04-29 13:48 47.67286 -11.06926 34013 ft 506 kts 259°
2026-04-29 13:49 47.65737 -11.17084 34021 ft 508 kts 259°
2026-04-29 13:49 47.64174 -11.27262 34024 ft 505 kts 259°
2026-04-29 13:50 47.62608 -11.37397 34031 ft 507 kts 259°
2026-04-29 13:50 47.61038 -11.47499 34030 ft 507 kts 259°
2026-04-29 13:51 47.59459 -11.57589 34030 ft 507 kts 259°
2026-04-29 13:51 47.57859 -11.67752 34028 ft 507 kts 259°
2026-04-29 13:52 47.56259 -11.77860 34031 ft 508 kts 259°
2026-04-29 13:52 47.54644 -11.87993 34034 ft 506 kts 259°
2026-04-29 13:53 47.53025 -11.98090 34031 ft 507 kts 259°
2026-04-29 13:53 47.51403 -12.08145 34050 ft 507 kts 259°
2026-04-29 13:54 47.49759 -12.18270 34039 ft 508 kts 259°
2026-04-29 13:54 47.48107 -12.28387 34047 ft 507 kts 259°
2026-04-29 13:55 47.46455 -12.38443 34035 ft 507 kts 259°
2026-04-29 13:55 47.44790 -12.48521 34060 ft 507 kts 260°
2026-04-29 13:56 47.43118 -12.58582 34047 ft 508 kts 260°
2026-04-29 13:56 47.41428 -12.68686 34047 ft 507 kts 259°
2026-04-29 13:57 47.39739 -12.78733 34062 ft 509 kts 259°
2026-04-29 13:57 47.38032 -12.88822 34054 ft 508 kts 260°
2026-04-29 13:58 47.36322 -12.98871 34066 ft 507 kts 260°
2026-04-29 13:58 47.34605 -13.08905 34051 ft 507 kts 260°
2026-04-29 13:59 47.32870 -13.18983 34061 ft 507 kts 260°
2026-04-29 13:59 47.31140 -13.28974 34056 ft 505 kts 260°
2026-04-29 14:00 47.29393 -13.39012 34048 ft 507 kts 261°
2026-04-29 14:00 47.27645 -13.48989 34063 ft 506 kts 261°
2026-04-29 14:01 47.25887 -13.58980 34058 ft 506 kts 261°
2026-04-29 14:01 47.24122 -13.68945 34062 ft 506 kts 260°
2026-04-29 14:02 47.22339 -13.78965 34049 ft 507 kts 260°
2026-04-29 14:02 47.20560 -13.88899 34061 ft 505 kts 260°
2026-04-29 14:03 47.18769 -13.98847 34057 ft 504 kts 260°
2026-04-29 14:03 47.16976 -14.08750 34045 ft 504 kts 260°
2026-04-29 14:04 47.15179 -14.18627 34061 ft 503 kts 260°
2026-04-29 14:04 47.13367 -14.28528 34056 ft 502 kts 261°
2026-04-29 14:05 47.11561 -14.38346 34058 ft 502 kts 260°
2026-04-29 14:05 47.09736 -14.48220 34061 ft 501 kts 260°
2026-04-29 14:06 47.07917 -14.57996 34064 ft 499 kts 261°
2026-04-29 14:06 47.06086 -14.67795 34063 ft 499 kts 260°
2026-04-29 14:07 47.04256 -14.77541 34064 ft 500 kts 260°
2026-04-29 14:07 47.02406 -14.87331 34067 ft 499 kts 260°
2026-04-29 14:08 47.00560 -14.97055 34073 ft 496 kts 260°
2026-04-29 14:08 46.98780 -15.06787 34067 ft 497 kts 261°
2026-04-29 14:09 46.97084 -15.16503 34066 ft 496 kts 261°
2026-04-29 14:09 46.95361 -15.26284 34066 ft 495 kts 261°
2026-04-29 14:10 46.93648 -15.35938 34070 ft 495 kts 261°
2026-04-29 14:10 46.91915 -15.45647 34068 ft 496 kts 261°
2026-04-29 14:11 46.90169 -15.55356 34075 ft 494 kts 261°
2026-04-29 14:11 46.88423 -15.65020 34058 ft 494 kts 260°
2026-04-29 14:12 46.86670 -15.74671 34062 ft 495 kts 260°
2026-04-29 14:12 46.84897 -15.84380 34069 ft 496 kts 260°
2026-04-29 14:13 46.83127 -15.94016 34066 ft 493 kts 260°
2026-04-29 14:13 46.81340 -16.03693 34063 ft 494 kts 260°
2026-04-29 14:14 46.79561 -16.13285 34065 ft 494 kts 259°
2026-04-29 14:14 46.77760 -16.22937 34067 ft 494 kts 259°
2026-04-29 14:15 46.75955 -16.32563 34066 ft 493 kts 259°
2026-04-29 14:15 46.74152 -16.42133 34069 ft 493 kts 259°
2026-04-29 14:16 46.72333 -16.51734 34070 ft 493 kts 259°
2026-04-29 14:16 46.70504 -16.61339 34072 ft 493 kts 259°
2026-04-29 14:17 46.68680 -16.70870 34062 ft 491 kts 258°
2026-04-29 14:17 46.66837 -16.80459 34063 ft 494 kts 258°
2026-04-29 14:18 46.64987 -16.90027 34069 ft 492 kts 258°
2026-04-29 14:18 46.63132 -16.99573 34068 ft 492 kts 258°
2026-04-29 14:19 46.61273 -17.09097 34068 ft 492 kts 258°
2026-04-29 14:19 46.59403 -17.18631 34067 ft 492 kts 257°
2026-04-29 14:20 46.57521 -17.28174 34064 ft 491 kts 257°
2026-04-29 14:20 46.55648 -17.37630 34066 ft 491 kts 257°
2026-04-29 14:21 46.53759 -17.47116 34066 ft 491 kts 257°
2026-04-29 14:21 46.51851 -17.56658 34066 ft 491 kts 257°
2026-04-29 14:22 46.49954 -17.66092 34065 ft 490 kts 256°
2026-04-29 14:22 46.48040 -17.75572 34064 ft 491 kts 256°
2026-04-29 14:23 46.46125 -17.85007 34061 ft 491 kts 256°
2026-04-29 14:23 46.44202 -17.94439 34063 ft 491 kts 256°
2026-04-29 14:24 46.42264 -18.03896 34060 ft 490 kts 256°
2026-04-29 14:24 46.40320 -18.13340 34061 ft 490 kts 256°
2026-04-29 14:25 46.38383 -18.22707 34062 ft 490 kts 256°
2026-04-29 14:25 46.36419 -18.32157 34063 ft 490 kts 256°
2026-04-29 14:26 46.34466 -18.41516 34062 ft 490 kts 256°
2026-04-29 14:26 46.32487 -18.50953 34063 ft 491 kts 256°
2026-04-29 14:27 46.30513 -18.60321 34064 ft 490 kts 255°
2026-04-29 14:28 46.27517 -18.74460 34062 ft 491 kts 255°
2026-04-29 14:28 46.25526 -18.83803 34062 ft 490 kts 254°
2026-04-29 14:29 46.23516 -18.93189 34061 ft 490 kts 254°
2026-04-29 14:29 46.21507 -19.02529 34063 ft 490 kts 254°
2026-04-29 14:30 46.19486 -19.11883 34063 ft 490 kts 254°
2026-04-29 14:30 46.17455 -19.21244 34058 ft 490 kts 254°
2026-04-29 14:31 46.15415 -19.30601 34054 ft 490 kts 254°
2026-04-29 14:31 46.13378 -19.39905 34055 ft 490 kts 254°
2026-04-29 14:32 46.11332 -19.49206 34049 ft 489 kts 253°
2026-04-29 14:32 46.09280 -19.58492 34050 ft 489 kts 253°
2026-04-29 14:33 46.07212 -19.67814 34047 ft 489 kts 253°
2026-04-29 14:33 46.05148 -19.77073 34045 ft 489 kts 253°
2026-04-29 14:34 46.03076 -19.86330 34041 ft 488 kts 252°
2026-04-29 14:34 46.00982 -19.95539 34032 ft 487 kts 249°
2026-04-29 14:35 45.97728 -20.04062 34040 ft 489 kts 236°
2026-04-29 14:35 45.93840 -20.12007 34032 ft 488 kts 235°
2026-04-29 14:36 45.89905 -20.19905 34033 ft 488 kts 234°
2026-04-29 14:36 45.85963 -20.27749 34031 ft 487 kts 234°
2026-04-29 14:37 45.81994 -20.35596 34030 ft 487 kts 234°
2026-04-29 14:37 45.78018 -20.43420 34028 ft 487 kts 234°
2026-04-29 14:38 45.74020 -20.51257 34029 ft 487 kts 234°
2026-04-29 14:38 45.70056 -20.59004 34028 ft 486 kts 234°
2026-04-29 14:39 45.66058 -20.66794 34029 ft 486 kts 233°
2026-04-29 14:39 45.62061 -20.74558 34026 ft 486 kts 233°
2026-04-29 14:40 45.58090 -20.82250 34024 ft 485 kts 233°
2026-04-29 14:40 45.54065 -20.90026 34024 ft 487 kts 233°
2026-04-29 14:41 45.50068 -20.97726 34024 ft 485 kts 233°
2026-04-29 14:41 45.46058 -21.05429 34021 ft 486 kts 233°
2026-04-29 14:42 45.42066 -21.13079 34022 ft 485 kts 233°
2026-04-29 14:42 45.38045 -21.20762 34022 ft 486 kts 233°
2026-04-29 14:43 45.34010 -21.28451 34021 ft 485 kts 233°
2026-04-29 14:43 45.29985 -21.36101 34020 ft 486 kts 233°
2026-04-29 14:44 45.25935 -21.43778 34017 ft 486 kts 233°
2026-04-29 14:44 45.21889 -21.51425 34018 ft 486 kts 233°
2026-04-29 14:45 45.17849 -21.59042 34018 ft 486 kts 233°
2026-04-29 14:45 45.13793 -21.66669 34016 ft 486 kts 232°
2026-04-29 14:46 45.09744 -21.74261 34015 ft 485 kts 232°
2026-04-29 14:46 45.05683 -21.81856 34012 ft 485 kts 232°
2026-04-29 14:47 45.01626 -21.89424 34013 ft 485 kts 232°
2026-04-29 14:47 44.97579 -21.96953 34009 ft 485 kts 232°
2026-04-29 14:48 44.93512 -22.04497 34011 ft 485 kts 232°
2026-04-29 14:48 44.89439 -22.12036 34006 ft 485 kts 232°
2026-04-29 14:49 44.85352 -22.19579 34005 ft 485 kts 232°
2026-04-29 14:49 44.81270 -22.27093 34005 ft 485 kts 232°
2026-04-29 14:50 44.77181 -22.34601 33999 ft 485 kts 232°
2026-04-29 14:50 44.73090 -22.42093 33999 ft 485 kts 232°
2026-04-29 14:51 44.68972 -22.49612 33997 ft 485 kts 232°
2026-04-29 14:51 44.64854 -22.57115 33992 ft 485 kts 232°
2026-04-29 14:52 44.60748 -22.64574 33994 ft 484 kts 232°
2026-04-29 14:52 44.56651 -22.72000 33983 ft 485 kts 231°
2026-04-29 14:53 44.52543 -22.79425 33986 ft 484 kts 231°
2026-04-29 14:53 44.48422 -22.86856 33984 ft 484 kts 231°
2026-04-29 14:54 44.44302 -22.94264 33984 ft 484 kts 231°
2026-04-29 14:54 44.40172 -23.01671 33980 ft 483 kts 230°
2026-04-29 14:55 44.36053 -23.09041 33979 ft 483 kts 230°
2026-04-29 14:55 44.31938 -23.16384 33974 ft 483 kts 230°
2026-04-29 14:56 44.27792 -23.23763 33975 ft 483 kts 230°
2026-04-29 14:56 44.23649 -23.31120 33971 ft 482 kts 230°
2026-04-29 14:57 44.19517 -23.38435 33971 ft 482 kts 230°
2026-04-29 14:57 44.15391 -23.45725 33966 ft 482 kts 230°
2026-04-29 14:58 44.11253 -23.53015 33962 ft 481 kts 230°
2026-04-29 14:58 44.07124 -23.60272 33959 ft 480 kts 230°
2026-04-29 14:59 44.02974 -23.67548 33960 ft 480 kts 229°
2026-04-29 14:59 43.98844 -23.74770 33951 ft 479 kts 229°
2026-04-29 15:00 43.94719 -23.81966 33950 ft 479 kts 229°
2026-04-29 15:00 43.90572 -23.89182 33950 ft 478 kts 229°
2026-04-29 15:01 43.86449 -23.96338 33951 ft 477 kts 229°
2026-04-29 15:01 43.82318 -24.03491 33949 ft 478 kts 229°
2026-04-29 15:02 43.78184 -24.10632 33948 ft 477 kts 229°
2026-04-29 15:02 43.74051 -24.17751 33944 ft 477 kts 229°
2026-04-29 15:03 43.69883 -24.24917 33941 ft 477 kts 229°
2026-04-29 15:03 43.65738 -24.32023 33939 ft 477 kts 229°
2026-04-29 15:04 43.61603 -24.39094 33939 ft 477 kts 229°
2026-04-29 15:04 43.57456 -24.46170 33935 ft 477 kts 229°
2026-04-29 15:05 43.53281 -24.53277 33928 ft 477 kts 229°
2026-04-29 15:05 43.49113 -24.60352 33923 ft 476 kts 229°
2026-04-29 15:06 43.44953 -24.67398 33925 ft 477 kts 228°
2026-04-29 15:06 43.40788 -24.74438 33922 ft 476 kts 228°
2026-04-29 15:07 43.36607 -24.81486 33917 ft 477 kts 228°
2026-04-29 15:07 43.32434 -24.88503 33911 ft 477 kts 228°
2026-04-29 15:08 43.28251 -24.95521 33906 ft 477 kts 228°
2026-04-29 15:08 43.24049 -25.02553 33905 ft 477 kts 228°
2026-04-29 15:09 43.19859 -25.09548 33893 ft 477 kts 228°
2026-04-29 15:09 43.15662 -25.16538 33888 ft 476 kts 228°
2026-04-29 15:10 43.11454 -25.23529 33879 ft 476 kts 228°
2026-04-29 15:10 43.07259 -25.30484 33880 ft 476 kts 228°
2026-04-29 15:11 43.03059 -25.37429 33885 ft 476 kts 228°
2026-04-29 15:11 42.98835 -25.44398 33875 ft 476 kts 228°
2026-04-29 15:12 42.94608 -25.51356 33873 ft 476 kts 228°
2026-04-29 15:12 42.90390 -25.58281 33866 ft 476 kts 228°
2026-04-29 15:13 42.86165 -25.65201 33866 ft 476 kts 227°
2026-04-29 15:13 42.81961 -25.72071 33866 ft 476 kts 227°
2026-04-29 15:14 42.77723 -25.78982 33863 ft 475 kts 227°
2026-04-29 15:14 42.73509 -25.85837 33862 ft 475 kts 227°
2026-04-29 15:15 42.69253 -25.92744 33858 ft 476 kts 227°
2026-04-29 15:15 42.65007 -25.99617 33854 ft 476 kts 227°
2026-04-29 15:16 42.60779 -26.06448 33856 ft 476 kts 227°
2026-04-29 15:16 42.56509 -26.13328 33848 ft 476 kts 227°
2026-04-29 15:17 42.52276 -26.20135 33839 ft 475 kts 226°
2026-04-29 15:17 42.48006 -26.26983 33842 ft 476 kts 226°
2026-04-29 15:18 42.43753 -26.33791 33839 ft 476 kts 226°
2026-04-29 15:18 42.39484 -26.40606 33834 ft 475 kts 226°
2026-04-29 15:19 42.35214 -26.47407 33830 ft 477 kts 226°
2026-04-29 15:19 42.30933 -26.54212 33827 ft 475 kts 226°
2026-04-29 15:20 42.26654 -26.60997 33822 ft 476 kts 226°
2026-04-29 15:20 42.22373 -26.67771 33816 ft 475 kts 225°
2026-04-29 15:21 42.18097 -26.74520 33813 ft 476 kts 225°
2026-04-29 15:21 42.13795 -26.81295 33811 ft 475 kts 225°
2026-04-29 15:22 42.09496 -26.88048 33806 ft 477 kts 225°
2026-04-29 15:22 42.05231 -26.94737 33806 ft 474 kts 225°
2026-04-29 15:23 42.00914 -27.01488 33802 ft 475 kts 224°
2026-04-29 15:23 41.96620 -27.08190 33795 ft 476 kts 224°
2026-04-29 15:24 41.92306 -27.14908 33793 ft 476 kts 224°
2026-04-29 15:24 41.87979 -27.21630 33804 ft 475 kts 224°
2026-04-29 15:25 41.83667 -27.28313 33798 ft 475 kts 224°
2026-04-29 15:25 41.79343 -27.35000 33796 ft 476 kts 224°
2026-04-29 15:26 41.75039 -27.41643 33796 ft 475 kts 224°
2026-04-29 15:26 41.70728 -27.48281 33800 ft 475 kts 223°
2026-04-29 15:27 41.66369 -27.54976 33793 ft 477 kts 223°
2026-04-29 15:27 41.62039 -27.61613 33797 ft 477 kts 223°
2026-04-29 15:28 41.57701 -27.68250 33782 ft 474 kts 223°
2026-04-29 15:28 41.53349 -27.74889 33783 ft 478 kts 222°
2026-04-29 15:29 41.48988 -27.81531 33778 ft 476 kts 222°
2026-04-29 15:30 41.40251 -27.94791 33788 ft 477 kts 222°
2026-04-29 15:30 41.35858 -28.01434 33769 ft 478 kts 222°
2026-04-29 15:31 41.31495 -28.08021 33774 ft 476 kts 222°
2026-04-29 15:31 41.27122 -28.14603 33771 ft 479 kts 222°
2026-04-29 15:32 41.22710 -28.21233 33770 ft 480 kts 222°
2026-04-29 15:32 41.18307 -28.27835 33778 ft 479 kts 222°
2026-04-29 15:33 41.13887 -28.34446 33768 ft 481 kts 222°
2026-04-29 15:33 41.09459 -28.41057 33759 ft 480 kts 222°
2026-04-29 15:34 41.05020 -28.47665 33771 ft 483 kts 222°
2026-04-29 15:34 41.00575 -28.54274 33774 ft 481 kts 223°
2026-04-29 15:35 40.96109 -28.60894 33778 ft 485 kts 223°
2026-04-29 15:35 40.91633 -28.67519 33766 ft 483 kts 222°
2026-04-29 15:36 40.87162 -28.74119 33781 ft 485 kts 222°
2026-04-29 15:36 40.82682 -28.80719 33772 ft 484 kts 223°
2026-04-29 15:37 40.78150 -28.87380 33769 ft 483 kts 223°
2026-04-29 15:37 40.73672 -28.93948 33771 ft 484 kts 223°
2026-04-29 15:38 40.69159 -29.00551 33772 ft 486 kts 223°
2026-04-29 15:38 40.64658 -29.07124 33783 ft 485 kts 223°
2026-04-29 15:39 40.60150 -29.13693 33777 ft 487 kts 223°
2026-04-29 15:39 40.55633 -29.20261 33790 ft 486 kts 224°
2026-04-29 15:40 40.51077 -29.26869 33787 ft 488 kts 224°
2026-04-29 15:40 40.46549 -29.33424 33774 ft 488 kts 224°
2026-04-29 15:41 40.42006 -29.39987 33784 ft 488 kts 224°
2026-04-29 15:41 40.37436 -29.46573 33783 ft 490 kts 224°
2026-04-29 15:42 40.32849 -29.53170 33765 ft 489 kts 225°
2026-04-29 15:42 40.28266 -29.59747 33787 ft 492 kts 224°
2026-04-29 15:43 40.23677 -29.66319 33780 ft 490 kts 224°
2026-04-29 15:43 40.19084 -29.72881 33772 ft 490 kts 224°
2026-04-29 15:44 40.14469 -29.79462 33777 ft 491 kts 225°
2026-04-29 15:44 40.09872 -29.86002 33786 ft 490 kts 225°
2026-04-29 15:45 40.05270 -29.92535 33787 ft 493 kts 225°
2026-04-29 15:45 40.00648 -29.99083 33785 ft 490 kts 225°
2026-04-29 15:46 39.96287 -30.05929 33794 ft 493 kts 231°
2026-04-29 15:46 39.92096 -30.13040 33786 ft 494 kts 231°
2026-04-29 15:47 39.87906 -30.20081 33785 ft 496 kts 231°
2026-04-29 15:47 39.83664 -30.27158 33791 ft 497 kts 231°
2026-04-29 15:48 39.79412 -30.34218 33787 ft 499 kts 231°
2026-04-29 15:48 39.75129 -30.41305 33784 ft 499 kts 232°
2026-04-29 15:49 39.70843 -30.48378 33786 ft 500 kts 232°
2026-04-29 15:49 39.66548 -30.55446 33775 ft 499 kts 232°
2026-04-29 15:50 39.62254 -30.62496 33794 ft 499 kts 233°
2026-04-29 15:50 39.57957 -30.69532 33774 ft 497 kts 232°
2026-04-29 15:51 39.53658 -30.76559 33787 ft 498 kts 233°
2026-04-29 15:51 39.49383 -30.83529 33782 ft 496 kts 233°
2026-04-29 15:52 39.45071 -30.90543 33797 ft 495 kts 233°
2026-04-29 15:52 39.40818 -30.97447 33795 ft 495 kts 233°
2026-04-29 15:53 39.36510 -31.04425 33777 ft 495 kts 233°
2026-04-29 15:53 39.32233 -31.11337 33785 ft 495 kts 233°
2026-04-29 15:54 39.27922 -31.18288 33781 ft 494 kts 234°
2026-04-29 15:54 39.23647 -31.25167 33772 ft 493 kts 234°
2026-04-29 15:55 39.19360 -31.32051 33804 ft 494 kts 234°
2026-04-29 15:55 39.15087 -31.38896 33783 ft 491 kts 234°
2026-04-29 15:56 39.10789 -31.45766 33789 ft 492 kts 234°
2026-04-29 15:56 39.06521 -31.52575 33798 ft 489 kts 235°
2026-04-29 15:57 39.02263 -31.59353 33816 ft 489 kts 235°
2026-04-29 15:57 38.98019 -31.66093 33812 ft 487 kts 234°
2026-04-29 15:58 38.93738 -31.72881 33820 ft 488 kts 235°
2026-04-29 15:58 38.89498 -31.79587 33816 ft 487 kts 235°
2026-04-29 15:59 38.85223 -31.86335 33805 ft 486 kts 235°
2026-04-29 15:59 38.80962 -31.93047 33805 ft 485 kts 236°
2026-04-29 16:00 38.76710 -31.99730 33808 ft 484 kts 236°
2026-04-29 16:00 38.72491 -32.06348 33809 ft 484 kts 236°
2026-04-29 16:01 38.68218 -32.13036 33825 ft 483 kts 236°
2026-04-29 16:01 38.64008 -32.19613 33813 ft 482 kts 236°
2026-04-29 16:02 38.59766 -32.26226 33834 ft 481 kts 237°
2026-04-29 16:02 38.55518 -32.32833 33817 ft 480 kts 237°
2026-04-29 16:03 38.51302 -32.39379 33825 ft 481 kts 237°
2026-04-29 16:03 38.47067 -32.45938 33824 ft 477 kts 237°
2026-04-29 16:04 38.42853 -32.52454 33831 ft 477 kts 238°
2026-04-29 16:04 38.38640 -32.58958 33829 ft 477 kts 238°
2026-04-29 16:05 38.34426 -32.65444 33824 ft 475 kts 238°
2026-04-29 16:05 38.30220 -32.71911 33838 ft 476 kts 238°
2026-04-29 16:06 38.26004 -32.78377 33854 ft 476 kts 238°
2026-04-29 16:06 38.21829 -32.84765 33852 ft 473 kts 239°
2026-04-29 16:07 38.17606 -32.91217 33875 ft 472 kts 239°
2026-04-29 16:07 38.13444 -32.97560 33861 ft 466 kts 239°
2026-04-29 16:08 38.09295 -33.03880 33857 ft 472 kts 239°
2026-04-29 16:08 38.05098 -33.10250 33860 ft 468 kts 240°
2026-04-29 16:09 38.00934 -33.16562 33867 ft 468 kts 240°
2026-04-29 16:09 37.96803 -33.22810 33874 ft 464 kts 241°
2026-04-29 16:10 37.92656 -33.29073 33871 ft 463 kts 240°
2026-04-29 16:10 37.88551 -33.35261 33863 ft 464 kts 241°
2026-04-29 16:11 37.84410 -33.41486 33860 ft 461 kts 241°
2026-04-29 16:11 37.80277 -33.47693 33861 ft 462 kts 241°
2026-04-29 16:12 37.76180 -33.53829 33874 ft 458 kts 242°
2026-04-29 16:12 37.72064 -33.59988 33872 ft 458 kts 242°
2026-04-29 16:13 37.67956 -33.66122 33883 ft 460 kts 241°
2026-04-29 16:13 37.63832 -33.72265 33898 ft 459 kts 242°
2026-04-29 16:14 37.59689 -33.78429 33902 ft 461 kts 242°
2026-04-29 16:14 37.55598 -33.84493 33909 ft 454 kts 242°
2026-04-29 16:15 37.51519 -33.90539 33902 ft 453 kts 242°
2026-04-29 16:15 37.47422 -33.96606 33910 ft 460 kts 242°
2026-04-29 16:16 37.43314 -34.02663 33909 ft 453 kts 242°
2026-04-29 16:16 37.39225 -34.08688 33910 ft 453 kts 242°
2026-04-29 16:17 37.35123 -34.14723 33915 ft 453 kts 242°
2026-04-29 16:17 37.31029 -34.20732 33917 ft 454 kts 242°
2026-04-29 16:18 37.26922 -34.26753 33922 ft 454 kts 242°
2026-04-29 16:18 37.22849 -34.32704 33915 ft 450 kts 242°
2026-04-29 16:19 37.18761 -34.38680 33927 ft 454 kts 242°
2026-04-29 16:19 37.14644 -34.44680 33933 ft 455 kts 242°
2026-04-29 16:20 37.10546 -34.50642 33933 ft 455 kts 242°
2026-04-29 16:20 37.06443 -34.56596 33930 ft 453 kts 242°
2026-04-29 16:21 37.02299 -34.62607 33943 ft 456 kts 242°
2026-04-29 16:21 36.98190 -34.68550 33969 ft 456 kts 241°
2026-04-29 16:22 36.94027 -34.74563 33966 ft 456 kts 241°
2026-04-29 16:22 36.89896 -34.80513 33971 ft 454 kts 241°
2026-04-29 16:23 36.85756 -34.86473 33952 ft 454 kts 241°
2026-04-29 16:23 36.81651 -34.92369 33967 ft 456 kts 241°
2026-04-29 16:24 36.77488 -34.98340 33965 ft 455 kts 241°
2026-04-29 16:24 36.73339 -35.04278 33969 ft 455 kts 240°
2026-04-29 16:25 36.69198 -35.10191 33973 ft 452 kts 241°
2026-04-29 16:25 36.65068 -35.16085 33975 ft 455 kts 240°
2026-04-29 16:26 36.60925 -35.21981 33977 ft 454 kts 241°
2026-04-29 16:26 36.56762 -35.27896 33983 ft 452 kts 241°
2026-04-29 16:27 36.52599 -35.33807 33986 ft 457 kts 240°
2026-04-29 16:27 36.48440 -35.39690 33984 ft 453 kts 240°
2026-04-29 16:28 36.44316 -35.45519 33986 ft 450 kts 241°
2026-04-29 16:28 36.40161 -35.51386 33984 ft 455 kts 240°
2026-04-29 16:29 36.36006 -35.57234 33984 ft 449 kts 240°
2026-04-29 16:29 36.31855 -35.63075 33991 ft 453 kts 240°
2026-04-29 16:30 36.27696 -35.68912 34011 ft 453 kts 240°
2026-04-29 16:30 36.23536 -35.74740 34008 ft 452 kts 240°
2026-04-29 16:31 36.19360 -35.80583 34009 ft 452 kts 240°
2026-04-29 16:31 36.15214 -35.86369 34022 ft 452 kts 240°
2026-04-29 16:32 36.11031 -35.92203 34014 ft 453 kts 239°
2026-04-29 16:32 36.06862 -35.98001 34020 ft 450 kts 239°
2026-04-29 16:33 36.00622 -36.06670 34024 ft 453 kts 239°
2026-04-29 16:33 35.96429 -36.12477 34022 ft 451 kts 239°
2026-04-29 16:34 35.92254 -36.18255 34031 ft 455 kts 239°
2026-04-29 16:34 35.88051 -36.24056 34011 ft 455 kts 239°
2026-04-29 16:35 35.83859 -36.29832 34010 ft 451 kts 239°
2026-04-29 16:35 35.79660 -36.35614 34013 ft 456 kts 239°
2026-04-29 16:36 35.75444 -36.41402 34013 ft 452 kts 239°
2026-04-29 16:36 35.71263 -36.47134 34016 ft 452 kts 239°
2026-04-29 16:37 35.67061 -36.52890 34015 ft 453 kts 239°
2026-04-29 16:37 35.63565 -36.57669 34024 ft 454 kts 239°
2026-04-29 16:38 35.58626 -36.64408 34024 ft 455 kts 239°
2026-04-29 16:38 35.54418 -36.70138 34040 ft 454 kts 238°
2026-04-29 16:39 35.50195 -36.75880 34040 ft 453 kts 238°
2026-04-29 16:39 35.45989 -36.81589 34041 ft 453 kts 238°
2026-04-29 16:40 35.41754 -36.87328 34044 ft 453 kts 238°
2026-04-29 16:40 35.37517 -36.93062 34043 ft 456 kts 238°
2026-04-29 16:41 35.33294 -36.98762 34048 ft 453 kts 238°
2026-04-29 16:41 35.29067 -37.04462 34047 ft 454 kts 238°
2026-04-29 16:42 35.24823 -37.10174 34054 ft 455 kts 238°
2026-04-29 16:42 35.20600 -37.15848 34054 ft 453 kts 238°
2026-04-29 16:43 35.16339 -37.21566 34053 ft 455 kts 238°
2026-04-29 16:43 35.12108 -37.27230 34052 ft 452 kts 238°
2026-04-29 16:44 35.07870 -37.32898 34052 ft 453 kts 237°
2026-04-29 16:44 35.03617 -37.38577 34053 ft 454 kts 237°
2026-04-29 16:45 34.99388 -37.44210 34053 ft 453 kts 237°
2026-04-29 16:45 34.95140 -37.49862 34053 ft 453 kts 237°
2026-04-29 16:46 34.90903 -37.55489 34051 ft 450 kts 237°
2026-04-29 16:46 34.86679 -37.61092 34042 ft 453 kts 237°
2026-04-29 16:47 34.82421 -37.66727 34055 ft 452 kts 236°
2026-04-29 16:47 34.78167 -37.72350 34054 ft 452 kts 236°
2026-04-29 16:48 34.73932 -37.77938 34054 ft 450 kts 236°
2026-04-29 16:48 34.69692 -37.83525 34056 ft 452 kts 236°
2026-04-29 16:49 34.65436 -37.89123 34057 ft 452 kts 236°
2026-04-29 16:49 34.61194 -37.94691 34054 ft 449 kts 236°
2026-04-29 16:50 34.56926 -38.00289 34052 ft 452 kts 236°
2026-04-29 16:50 34.52679 -38.05844 34053 ft 449 kts 236°
2026-04-29 16:51 34.48440 -38.11385 34053 ft 451 kts 236°
2026-04-29 16:51 34.44167 -38.16960 34054 ft 450 kts 236°
2026-04-29 16:52 34.39928 -38.22483 34053 ft 452 kts 235°
2026-04-29 16:52 34.35653 -38.28041 34056 ft 451 kts 235°
2026-04-29 16:53 34.31383 -38.33586 34054 ft 451 kts 235°
2026-04-29 16:53 34.27139 -38.39086 34059 ft 449 kts 235°
2026-04-29 16:54 34.22868 -38.44616 34056 ft 451 kts 235°
2026-04-29 16:54 34.18583 -38.50153 34058 ft 451 kts 235°
2026-04-29 16:55 34.14310 -38.55666 34059 ft 452 kts 235°
2026-04-29 16:55 34.10041 -38.61163 34059 ft 449 kts 234°
2026-04-29 16:56 34.05778 -38.66645 34074 ft 449 kts 234°
2026-04-29 16:56 34.01508 -38.72129 34076 ft 451 kts 234°
2026-04-29 16:57 33.97198 -38.77654 34075 ft 451 kts 234°
2026-04-29 16:57 33.92945 -38.83098 34081 ft 450 kts 234°
2026-04-29 16:58 33.88645 -38.88593 34071 ft 451 kts 234°
2026-04-29 16:58 33.84360 -38.94059 34072 ft 449 kts 234°
2026-04-29 16:59 33.80080 -38.99514 34075 ft 452 kts 234°
2026-04-29 16:59 33.75762 -39.05004 34070 ft 449 kts 234°
2026-04-29 17:00 33.71489 -39.10432 34074 ft 450 kts 234°
2026-04-29 17:00 33.67201 -39.15868 34069 ft 449 kts 234°
2026-04-29 17:01 33.62922 -39.21286 34071 ft 448 kts 233°
2026-04-29 17:01 33.58612 -39.26735 34068 ft 450 kts 233°
2026-04-29 17:02 33.54319 -39.32153 34075 ft 448 kts 233°
2026-04-29 17:02 33.50043 -39.37542 34072 ft 451 kts 233°
2026-04-29 17:03 33.45732 -39.42965 34071 ft 448 kts 233°
2026-04-29 17:03 33.41444 -39.48354 34092 ft 454 kts 233°
2026-04-29 17:04 33.39236 -39.51126 34491 ft 455 kts 233°
2026-04-29 17:04 33.37087 -39.53817 35312 ft 448 kts 233°
2026-04-29 17:04 33.34954 -39.56485 36026 ft 444 kts 234°
2026-04-29 17:04 33.32830 -39.59147 36068 ft 444 kts 234°
2026-04-29 17:05 33.28572 -39.64470 36076 ft 439 kts 234°
2026-04-29 17:05 33.24363 -39.69730 36088 ft 442 kts 233°
2026-04-29 17:06 33.20146 -39.74986 36095 ft 439 kts 233°
2026-04-29 17:06 33.15927 -39.80241 36088 ft 439 kts 233°
2026-04-29 17:07 33.11687 -39.85511 36092 ft 438 kts 233°
2026-04-29 17:07 33.07487 -39.90725 36096 ft 439 kts 233°
2026-04-29 17:08 33.03247 -39.95980 36096 ft 439 kts 233°
2026-04-29 17:08 32.99013 -40.01244 36094 ft 439 kts 234°
2026-04-29 17:09 32.94992 -40.06632 36100 ft 435 kts 235°
2026-04-29 17:09 32.90987 -40.12004 36096 ft 435 kts 235°
2026-04-29 17:10 32.86972 -40.17370 36088 ft 437 kts 235°
2026-04-29 17:10 32.82943 -40.22738 36091 ft 436 kts 234°
2026-04-29 17:11 32.78911 -40.28097 36088 ft 435 kts 235°
2026-04-29 17:11 32.74857 -40.33479 36091 ft 438 kts 234°
2026-04-29 17:12 32.70824 -40.38820 36088 ft 435 kts 234°
2026-04-29 17:12 32.67453 -40.43281 36087 ft 437 kts 235°
2026-04-29 17:13 32.62713 -40.49540 36087 ft 436 kts 235°
2026-04-29 17:13 32.58669 -40.54873 36086 ft 435 kts 234°
2026-04-29 17:14 32.54644 -40.60174 36084 ft 436 kts 234°
2026-04-29 17:14 32.50588 -40.65506 36085 ft 435 kts 234°
2026-04-29 17:15 32.46514 -40.70857 36100 ft 438 kts 234°
2026-04-29 17:15 32.42459 -40.76171 36098 ft 435 kts 234°
2026-04-29 17:16 32.38392 -40.81496 36095 ft 437 kts 234°
2026-04-29 17:16 32.34355 -40.86773 36096 ft 437 kts 234°
2026-04-29 17:17 32.30280 -40.92094 36099 ft 437 kts 233°
2026-04-29 17:17 32.26190 -40.97423 36091 ft 435 kts 233°
2026-04-29 17:18 32.22133 -41.02705 36095 ft 437 kts 234°
2026-04-29 17:18 32.18040 -41.08025 36097 ft 437 kts 234°
2026-04-29 17:19 32.13987 -41.13283 36091 ft 436 kts 234°
2026-04-29 17:19 32.09889 -41.18595 36088 ft 437 kts 233°
2026-04-29 17:20 32.05819 -41.23862 36087 ft 436 kts 233°
2026-04-29 17:20 32.01729 -41.29148 36087 ft 437 kts 233°
2026-04-29 17:21 31.97641 -41.34423 36085 ft 436 kts 233°
2026-04-29 17:21 31.93557 -41.39685 36083 ft 435 kts 233°
2026-04-29 17:22 31.89486 -41.44924 36082 ft 437 kts 233°
2026-04-29 17:22 31.85373 -41.50209 36076 ft 438 kts 233°
2026-04-29 17:23 31.81281 -41.55459 36074 ft 434 kts 233°
2026-04-29 17:23 31.77203 -41.60685 36074 ft 436 kts 233°
2026-04-29 17:24 31.73125 -41.65904 36079 ft 435 kts 232°
2026-04-29 17:24 31.69020 -41.71148 36083 ft 438 kts 232°
2026-04-29 17:25 31.64912 -41.76389 36079 ft 434 kts 232°
2026-04-29 17:25 31.60811 -41.81616 36084 ft 438 kts 232°
2026-04-29 17:26 31.56701 -41.86845 36077 ft 437 kts 232°
2026-04-29 17:26 31.52578 -41.92082 36078 ft 435 kts 232°
2026-04-29 17:27 31.48485 -41.97277 36077 ft 437 kts 232°
2026-04-29 17:27 31.44373 -42.02486 36077 ft 436 kts 232°
2026-04-29 17:28 31.40275 -42.07671 36074 ft 436 kts 232°
2026-04-29 17:28 31.36138 -42.12898 36073 ft 437 kts 232°
2026-04-29 17:29 31.32054 -42.18051 36070 ft 433 kts 232°
2026-04-29 17:29 31.27944 -42.23231 36068 ft 437 kts 232°
2026-04-29 17:30 31.23823 -42.28416 36065 ft 433 kts 232°
2026-04-29 17:30 31.19707 -42.33588 36066 ft 435 kts 232°
2026-04-29 17:31 31.15612 -42.38726 36061 ft 432 kts 232°
2026-04-29 17:31 31.11520 -42.43854 36059 ft 435 kts 232°
2026-04-29 17:32 31.07414 -42.48993 36055 ft 433 kts 232°
2026-04-29 17:32 31.03291 -42.54147 36051 ft 433 kts 232°
2026-04-29 17:33 30.99197 -42.59255 36056 ft 433 kts 232°
2026-04-29 17:33 30.95107 -42.64353 36052 ft 431 kts 232°
2026-04-29 17:34 30.91012 -42.69450 36066 ft 431 kts 231°
2026-04-29 17:34 30.86947 -42.74504 36065 ft 431 kts 231°
2026-04-29 17:35 30.80780 -42.82156 36061 ft 430 kts 231°
2026-04-29 17:36 30.76714 -42.87194 36060 ft 428 kts 231°
2026-04-29 17:36 30.72620 -42.92259 36057 ft 429 kts 231°
2026-04-29 17:37 30.68568 -42.97265 36056 ft 428 kts 232°
2026-04-29 17:37 30.64458 -43.02338 36054 ft 430 kts 231°
2026-04-29 17:38 30.60376 -43.07367 36053 ft 428 kts 232°
2026-04-29 17:38 30.56286 -43.12402 36051 ft 430 kts 231°
2026-04-29 17:39 30.52201 -43.17422 36052 ft 428 kts 232°
2026-04-29 17:39 30.48120 -43.22433 36052 ft 431 kts 231°
2026-04-29 17:40 30.44033 -43.27442 36048 ft 428 kts 231°
2026-04-29 17:40 30.39905 -43.32497 36049 ft 431 kts 231°
2026-04-29 17:41 30.35809 -43.37504 36048 ft 428 kts 231°
2026-04-29 17:41 30.31728 -43.42488 36042 ft 429 kts 231°
2026-04-29 17:42 30.27619 -43.47499 36043 ft 429 kts 231°
2026-04-29 17:42 30.23505 -43.52509 36042 ft 429 kts 231°
2026-04-29 17:43 30.19399 -43.57503 36040 ft 429 kts 231°
2026-04-29 17:43 30.15307 -43.62475 36042 ft 428 kts 231°
2026-04-29 17:44 30.11177 -43.67486 36058 ft 430 kts 230°
2026-04-29 17:44 30.07073 -43.72458 36059 ft 428 kts 230°
2026-04-29 17:45 30.02970 -43.77423 36055 ft 431 kts 231°
2026-04-29 17:45 29.98845 -43.82407 36057 ft 428 kts 231°
2026-04-29 17:46 29.94742 -43.87360 36054 ft 429 kts 230°
2026-04-29 17:46 29.90618 -43.92331 36052 ft 430 kts 230°
2026-04-29 17:47 29.86519 -43.97266 36054 ft 428 kts 230°
2026-04-29 17:47 29.82373 -44.02251 36050 ft 429 kts 231°
2026-04-29 17:48 29.78282 -44.07162 36047 ft 428 kts 231°
2026-04-29 17:48 29.74149 -44.12120 36050 ft 429 kts 231°
2026-04-29 17:49 29.70021 -44.17064 36051 ft 428 kts 230°
2026-04-29 17:49 29.65884 -44.22014 36046 ft 428 kts 230°
2026-04-29 17:50 29.61778 -44.26919 36048 ft 429 kts 230°
2026-04-29 17:50 29.57647 -44.31848 36044 ft 426 kts 231°
2026-04-29 17:51 29.53523 -44.36765 36042 ft 430 kts 230°
2026-04-29 17:51 29.49395 -44.41678 36043 ft 428 kts 230°
2026-04-29 17:52 29.45282 -44.46567 36041 ft 430 kts 230°
2026-04-29 17:52 29.41149 -44.51473 36036 ft 428 kts 230°
2026-04-29 17:53 29.37007 -44.56385 36032 ft 429 kts 230°
2026-04-29 17:53 29.32868 -44.61288 36031 ft 427 kts 230°
2026-04-29 17:54 29.28739 -44.66171 36043 ft 428 kts 230°
2026-04-29 17:54 29.24581 -44.71085 36040 ft 429 kts 229°
2026-04-29 17:55 29.20439 -44.75970 36040 ft 428 kts 230°
2026-04-29 17:55 29.16301 -44.80848 36038 ft 429 kts 230°
2026-04-29 17:56 29.12144 -44.85741 36038 ft 430 kts 229°
2026-04-29 17:56 29.07982 -44.90633 36034 ft 427 kts 230°
2026-04-29 17:57 29.03832 -44.95506 36030 ft 429 kts 230°
2026-04-29 17:57 28.99676 -45.00381 36022 ft 430 kts 230°
2026-04-29 17:58 28.95795 -45.05467 36033 ft 427 kts 233°
2026-04-29 17:58 28.91964 -45.10590 36020 ft 425 kts 233°
2026-04-29 17:59 28.88075 -45.15761 36034 ft 428 kts 233°
2026-04-29 17:59 28.84213 -45.20873 36018 ft 426 kts 233°
2026-04-29 18:00 28.80350 -45.25976 36029 ft 427 kts 233°
2026-04-29 18:00 28.76474 -45.31084 36011 ft 426 kts 233°
2026-04-29 18:01 28.72603 -45.36180 36020 ft 426 kts 233°
2026-04-29 18:01 28.68737 -45.41262 36016 ft 427 kts 233°
2026-04-29 18:02 28.64852 -45.46360 36011 ft 426 kts 233°
2026-04-29 18:02 28.60987 -45.51427 36007 ft 426 kts 233°
2026-04-29 18:03 28.57090 -45.56530 36013 ft 425 kts 233°
2026-04-29 18:03 28.53225 -45.61583 36008 ft 424 kts 233°
2026-04-29 18:04 28.49359 -45.66632 36023 ft 425 kts 233°
2026-04-29 18:04 28.45462 -45.71715 36022 ft 426 kts 233°
2026-04-29 18:05 28.41589 -45.76762 36025 ft 425 kts 233°
2026-04-29 18:05 28.37734 -45.81778 36026 ft 424 kts 233°
2026-04-29 18:06 28.33824 -45.86860 36021 ft 426 kts 233°
2026-04-29 18:06 28.29937 -45.91906 36021 ft 426 kts 233°
2026-04-29 18:07 28.26047 -45.96949 36023 ft 425 kts 233°
2026-04-29 18:07 28.22151 -46.01996 36019 ft 427 kts 233°
2026-04-29 18:08 28.18260 -46.07028 36024 ft 425 kts 233°
2026-04-29 18:08 28.14332 -46.12103 36015 ft 428 kts 233°
2026-04-29 18:09 28.10430 -46.17136 36022 ft 426 kts 233°
2026-04-29 18:09 28.06526 -46.22168 36023 ft 427 kts 233°
2026-04-29 18:10 28.02617 -46.27202 36002 ft 429 kts 233°
2026-04-29 18:10 27.98666 -46.32280 36012 ft 429 kts 233°
2026-04-29 18:11 27.94754 -46.37304 36005 ft 427 kts 233°
2026-04-29 18:11 27.90815 -46.42356 36008 ft 428 kts 234°
2026-04-29 18:12 27.86925 -46.47339 36011 ft 425 kts 233°
2026-04-29 18:12 27.82984 -46.52382 36008 ft 427 kts 233°
2026-04-29 18:13 27.79069 -46.57386 36002 ft 426 kts 233°
2026-04-29 18:13 27.75141 -46.62401 35995 ft 426 kts 233°
2026-04-29 18:14 27.71238 -46.67377 36011 ft 427 kts 233°
2026-04-29 18:14 27.67311 -46.72378 36011 ft 425 kts 233°
2026-04-29 18:15 27.63393 -46.77362 36014 ft 425 kts 233°
2026-04-29 18:15 27.59484 -46.82328 36005 ft 423 kts 233°
2026-04-29 18:16 27.55579 -46.87284 36003 ft 426 kts 233°
2026-04-29 18:16 27.51671 -46.92239 36006 ft 422 kts 233°
2026-04-29 18:17 27.47765 -46.97184 36003 ft 424 kts 233°
2026-04-29 18:17 27.43868 -47.02111 35999 ft 419 kts 233°
2026-04-29 18:18 27.39987 -47.07014 35997 ft 420 kts 234°
2026-04-29 18:18 27.36103 -47.11914 36003 ft 419 kts 234°
2026-04-29 18:19 27.32239 -47.16785 35997 ft 419 kts 234°
2026-04-29 18:19 27.28375 -47.21650 35996 ft 417 kts 234°
2026-04-29 18:20 27.24534 -47.26480 35989 ft 415 kts 234°
2026-04-29 18:20 27.20685 -47.31316 35995 ft 415 kts 234°
2026-04-29 18:21 27.16847 -47.36130 35988 ft 414 kts 234°
2026-04-29 18:21 27.13020 -47.40926 35985 ft 413 kts 234°
2026-04-29 18:22 27.09220 -47.45683 35993 ft 409 kts 234°
2026-04-29 18:22 27.05391 -47.50474 35984 ft 413 kts 234°
2026-04-29 18:23 27.01582 -47.55231 35986 ft 411 kts 234°
2026-04-29 18:23 26.97783 -47.59970 35990 ft 408 kts 234°
2026-04-29 18:24 26.93995 -47.64692 35980 ft 410 kts 234°
2026-04-29 18:24 26.90183 -47.69438 36002 ft 408 kts 234°
2026-04-29 18:25 26.86390 -47.74155 36005 ft 408 kts 234°
2026-04-29 18:25 26.82601 -47.78863 36008 ft 408 kts 234°
2026-04-29 18:26 26.78816 -47.83561 36000 ft 406 kts 233°
2026-04-29 18:26 26.74992 -47.88303 36004 ft 409 kts 234°
2026-04-29 18:27 26.71197 -47.93002 36002 ft 409 kts 234°
2026-04-29 18:27 26.67401 -47.97696 36010 ft 404 kts 233°
2026-04-29 18:28 26.63612 -48.02381 35998 ft 409 kts 234°
2026-04-29 18:28 26.59825 -48.07053 35993 ft 406 kts 233°
2026-04-29 18:29 26.56046 -48.11714 35999 ft 408 kts 233°
2026-04-29 18:29 26.52236 -48.16407 35993 ft 408 kts 234°
2026-04-29 18:30 26.48443 -48.21074 35992 ft 406 kts 234°
2026-04-29 18:30 26.44640 -48.25748 35994 ft 406 kts 233°
2026-04-29 18:31 26.40868 -48.30380 35995 ft 406 kts 234°
2026-04-29 18:31 26.37074 -48.35032 35984 ft 404 kts 234°
2026-04-29 18:32 26.33287 -48.39674 35989 ft 406 kts 234°
2026-04-29 18:32 26.27596 -48.46636 35986 ft 405 kts 233°
2026-04-29 18:33 26.23803 -48.51274 35988 ft 408 kts 233°
2026-04-29 18:33 26.20006 -48.55907 35978 ft 406 kts 234°
2026-04-29 18:34 26.16835 -48.59775 35981 ft 405 kts 233°
2026-04-29 18:34 26.12408 -48.65167 35985 ft 402 kts 234°
2026-04-29 18:35 26.08620 -48.69779 36006 ft 406 kts 233°
2026-04-29 18:35 26.04818 -48.74401 35998 ft 403 kts 233°
2026-04-29 18:36 26.01063 -48.78962 35996 ft 404 kts 233°
2026-04-29 18:36 25.97257 -48.83579 36002 ft 404 kts 233°
2026-04-29 18:37 25.93468 -48.88171 36000 ft 403 kts 233°
2026-04-29 18:37 25.89688 -48.92748 35993 ft 403 kts 233°
2026-04-29 18:38 25.85890 -48.97342 36001 ft 406 kts 233°
2026-04-29 18:38 25.82077 -49.01948 35994 ft 404 kts 233°
2026-04-29 18:39 25.78266 -49.06549 35997 ft 405 kts 233°
2026-04-29 18:39 25.74479 -49.11115 35994 ft 403 kts 233°
2026-04-29 18:40 25.70681 -49.15690 35992 ft 406 kts 233°
2026-04-29 18:40 25.66857 -49.20291 35999 ft 405 kts 233°
2026-04-29 18:41 25.59228 -49.29458 35994 ft 406 kts 233°
2026-04-29 18:42 25.55423 -49.34021 35991 ft 403 kts 233°
2026-04-29 18:42 25.51617 -49.38585 35993 ft 405 kts 233°
2026-04-29 18:43 25.47799 -49.43156 35991 ft 405 kts 233°
2026-04-29 18:43 25.43989 -49.47711 35994 ft 403 kts 233°
2026-04-29 18:44 25.40134 -49.52320 35995 ft 407 kts 233°
2026-04-29 18:44 25.36327 -49.56863 35992 ft 406 kts 233°
2026-04-29 18:45 25.32488 -49.61440 35991 ft 404 kts 233°
2026-04-29 18:45 25.28661 -49.66000 36004 ft 405 kts 232°
2026-04-29 18:46 25.24842 -49.70545 36018 ft 405 kts 232°
2026-04-29 18:46 25.21016 -49.75093 36011 ft 403 kts 233°
2026-04-29 18:47 25.17197 -49.79630 36013 ft 405 kts 233°
2026-04-29 18:47 25.13359 -49.84184 36009 ft 405 kts 232°
2026-04-29 18:48 25.09546 -49.88703 36013 ft 404 kts 233°
2026-04-29 18:48 25.05715 -49.93240 36011 ft 403 kts 232°
2026-04-29 18:49 25.01890 -49.97765 36010 ft 403 kts 232°
2026-04-29 18:49 24.98162 -50.02309 36010 ft 400 kts 236°
2026-04-29 18:50 24.94582 -50.07066 36007 ft 403 kts 235°
2026-04-29 18:50 24.91004 -50.11792 36003 ft 403 kts 235°
2026-04-29 18:51 24.87413 -50.16516 36008 ft 404 kts 235°
2026-04-29 18:51 24.83837 -50.21205 36006 ft 402 kts 235°
2026-04-29 18:52 24.80217 -50.25948 36003 ft 405 kts 236°
2026-04-29 18:52 24.76613 -50.30661 36004 ft 403 kts 235°
2026-04-29 18:53 24.73007 -50.35371 36000 ft 403 kts 235°
2026-04-29 18:53 24.69371 -50.40118 36001 ft 406 kts 235°
2026-04-29 18:54 24.65743 -50.44848 36000 ft 407 kts 235°
2026-04-29 18:54 24.62099 -50.49593 35997 ft 406 kts 235°
2026-04-29 18:55 24.58465 -50.54321 35992 ft 407 kts 235°
2026-04-29 18:55 24.54817 -50.59061 35993 ft 405 kts 235°
2026-04-29 18:56 24.51158 -50.63815 35992 ft 409 kts 235°
2026-04-29 18:56 24.47501 -50.68557 36012 ft 406 kts 234°
2026-04-29 18:57 24.43865 -50.73270 36013 ft 410 kts 234°
2026-04-29 18:57 24.40195 -50.78021 36008 ft 407 kts 234°
2026-04-29 18:58 24.36492 -50.82811 36010 ft 411 kts 234°
2026-04-29 18:58 24.32823 -50.87550 36011 ft 408 kts 234°
2026-04-29 18:59 24.29134 -50.92313 36009 ft 410 kts 234°
2026-04-29 18:59 24.25474 -50.97032 36007 ft 410 kts 234°
2026-04-29 19:00 24.21778 -51.01794 36005 ft 410 kts 235°
2026-04-29 19:00 24.18081 -51.06551 36011 ft 410 kts 235°
2026-04-29 19:01 24.14382 -51.11308 36006 ft 411 kts 234°
2026-04-29 19:01 24.10670 -51.16077 36005 ft 412 kts 234°
2026-04-29 19:02 24.06960 -51.20837 36007 ft 411 kts 234°
2026-04-29 19:02 24.03247 -51.25597 36006 ft 413 kts 235°
2026-04-29 19:03 23.99527 -51.30361 36005 ft 411 kts 234°
2026-04-29 19:03 23.95826 -51.35097 36007 ft 412 kts 234°
2026-04-29 19:04 23.92095 -51.39867 36006 ft 413 kts 234°
2026-04-29 19:04 23.88386 -51.44602 36006 ft 412 kts 235°
2026-04-29 19:05 23.84654 -51.49364 36006 ft 412 kts 234°
2026-04-29 19:05 23.80928 -51.54113 36004 ft 411 kts 234°
2026-04-29 19:06 23.77215 -51.58842 36005 ft 414 kts 234°
2026-04-29 19:07 23.71619 -51.65959 36018 ft 415 kts 234°
2026-04-29 19:07 23.67850 -51.70746 36023 ft 413 kts 234°
2026-04-29 19:08 23.64131 -51.75464 36023 ft 411 kts 234°
2026-04-29 19:08 23.60387 -51.80213 36026 ft 415 kts 234°
2026-04-29 19:09 23.56639 -51.84960 36029 ft 414 kts 234°
2026-04-29 19:09 23.52896 -51.89696 36023 ft 413 kts 234°
2026-04-29 19:10 23.49136 -51.94450 36023 ft 414 kts 234°
2026-04-29 19:10 23.45406 -51.99160 36020 ft 412 kts 234°
2026-04-29 19:11 23.41642 -52.03911 36020 ft 414 kts 234°
2026-04-29 19:11 23.37894 -52.08635 36021 ft 414 kts 234°
2026-04-29 19:12 23.34123 -52.13386 36021 ft 416 kts 234°
2026-04-29 19:12 23.30347 -52.18136 36020 ft 416 kts 234°
2026-04-29 19:13 23.26569 -52.22886 36019 ft 415 kts 234°
2026-04-29 19:13 23.22788 -52.27634 36015 ft 417 kts 234°
2026-04-29 19:14 23.19010 -52.32374 36016 ft 417 kts 234°
2026-04-29 19:14 23.15208 -52.37140 36018 ft 416 kts 234°
2026-04-29 19:15 23.11423 -52.41881 36012 ft 417 kts 234°
2026-04-29 19:15 23.07624 -52.46634 36014 ft 418 kts 234°
2026-04-29 19:16 23.03798 -52.51416 36012 ft 419 kts 234°
2026-04-29 19:16 22.99997 -52.56162 36009 ft 417 kts 234°
2026-04-29 19:17 22.96199 -52.60901 36008 ft 417 kts 234°
2026-04-29 19:17 22.92386 -52.65654 36016 ft 418 kts 233°
2026-04-29 19:18 22.88569 -52.70407 36028 ft 421 kts 234°
2026-04-29 19:18 22.84726 -52.75188 36027 ft 419 kts 234°
2026-04-29 19:19 22.80898 -52.79947 36025 ft 423 kts 234°
2026-04-29 19:19 22.77027 -52.84754 36021 ft 421 kts 233°
2026-04-29 19:20 22.73212 -52.89485 36025 ft 419 kts 234°
2026-04-29 19:20 22.69365 -52.94254 36017 ft 418 kts 234°
2026-04-29 19:21 22.65540 -52.98992 36022 ft 420 kts 233°
2026-04-29 19:21 22.61704 -53.03737 36022 ft 421 kts 233°
2026-04-29 19:22 22.57839 -53.08514 36020 ft 420 kts 234°
2026-04-29 19:22 22.53986 -53.13273 36016 ft 420 kts 234°
2026-04-29 19:23 22.50142 -53.18016 36020 ft 420 kts 233°
2026-04-29 19:23 22.46256 -53.22807 36018 ft 422 kts 234°
2026-04-29 19:24 22.42414 -53.27537 36021 ft 421 kts 234°
2026-04-29 19:24 22.38572 -53.32265 36019 ft 423 kts 233°
2026-04-29 19:25 22.34698 -53.37026 36019 ft 419 kts 234°
2026-04-29 19:25 22.30851 -53.41751 36018 ft 420 kts 233°
2026-04-29 19:26 22.26990 -53.46490 36018 ft 422 kts 233°
2026-04-29 19:26 22.23115 -53.51239 36013 ft 419 kts 234°
2026-04-29 19:27 22.19256 -53.55967 36014 ft 420 kts 233°
2026-04-29 19:27 22.15398 -53.60687 36017 ft 419 kts 233°
2026-04-29 19:28 22.11521 -53.65429 36023 ft 423 kts 233°
2026-04-29 19:28 22.07651 -53.70155 36033 ft 420 kts 233°
2026-04-29 19:29 22.03788 -53.74869 36034 ft 422 kts 233°
2026-04-29 19:29 21.99898 -53.79613 36033 ft 420 kts 233°
2026-04-29 19:30 21.96024 -53.84332 36033 ft 422 kts 233°
2026-04-29 19:30 21.92136 -53.89064 36031 ft 420 kts 233°
2026-04-29 19:31 21.88259 -53.93779 36035 ft 423 kts 233°
2026-04-29 19:31 21.84381 -53.98490 36036 ft 422 kts 233°
2026-04-29 19:32 21.80489 -54.03215 36033 ft 423 kts 233°
2026-04-29 19:32 21.76585 -54.07950 36031 ft 423 kts 232°
2026-04-29 19:33 21.72676 -54.12687 36029 ft 423 kts 232°
2026-04-29 19:33 21.68765 -54.17422 36029 ft 423 kts 232°
2026-04-29 19:34 21.64865 -54.22139 36025 ft 425 kts 233°
2026-04-29 19:34 21.60922 -54.26904 36024 ft 424 kts 232°
2026-04-29 19:35 21.56992 -54.31650 36024 ft 428 kts 233°
2026-04-29 19:35 21.53064 -54.36387 36023 ft 426 kts 233°
2026-04-29 19:36 21.49109 -54.41156 36022 ft 428 kts 232°
2026-04-29 19:36 21.45168 -54.45900 36020 ft 425 kts 232°
2026-04-29 19:37 21.41228 -54.50641 36019 ft 428 kts 232°
2026-04-29 19:37 21.37252 -54.55422 36021 ft 428 kts 233°
2026-04-29 19:38 21.33293 -54.60177 36021 ft 430 kts 232°
2026-04-29 19:38 21.29314 -54.64951 36019 ft 429 kts 232°
2026-04-29 19:39 21.25340 -54.69716 36034 ft 430 kts 232°
2026-04-29 19:39 21.21354 -54.74491 36032 ft 430 kts 232°
2026-04-29 19:40 21.17363 -54.79268 36031 ft 429 kts 232°
2026-04-29 19:40 21.13380 -54.84031 36032 ft 432 kts 232°
2026-04-29 19:41 21.09399 -54.88787 36033 ft 430 kts 232°
2026-04-29 19:41 21.05376 -54.93589 36033 ft 432 kts 232°
2026-04-29 19:42 21.01378 -54.98357 36031 ft 432 kts 232°
2026-04-29 19:42 20.97914 -55.03529 36034 ft 429 kts 242°
2026-04-29 19:43 20.94812 -55.08963 36033 ft 428 kts 242°
2026-04-29 19:43 20.91715 -55.14367 36031 ft 427 kts 242°
2026-04-29 19:44 20.88590 -55.19800 36032 ft 427 kts 242°
2026-04-29 19:44 20.85499 -55.25163 36029 ft 427 kts 242°
2026-04-29 19:45 20.82370 -55.30582 36031 ft 427 kts 241°
2026-04-29 19:45 20.79258 -55.35965 36030 ft 427 kts 242°
2026-04-29 19:46 20.76137 -55.41359 36028 ft 428 kts 241°
2026-04-29 19:46 20.73023 -55.46733 36030 ft 426 kts 242°
2026-04-29 19:47 20.69885 -55.52146 36025 ft 428 kts 242°
2026-04-29 19:47 20.66774 -55.57504 36022 ft 426 kts 242°
2026-04-29 19:48 20.63655 -55.62874 36024 ft 429 kts 242°
2026-04-29 19:48 20.60520 -55.68264 36041 ft 428 kts 241°
2026-04-29 19:49 20.57390 -55.73641 36038 ft 426 kts 241°
2026-04-29 19:49 20.54259 -55.79015 36038 ft 428 kts 241°
2026-04-29 19:50 20.51127 -55.84384 36034 ft 425 kts 241°
2026-04-29 19:50 20.47994 -55.89753 36033 ft 427 kts 241°
2026-04-29 19:51 20.44850 -55.95132 36032 ft 427 kts 241°
2026-04-29 19:51 20.41718 -56.00488 36034 ft 428 kts 241°
2026-04-29 19:52 20.38577 -56.05854 36033 ft 426 kts 241°
2026-04-29 19:52 20.35433 -56.11221 36032 ft 428 kts 241°
2026-04-29 19:53 20.32281 -56.16594 36029 ft 429 kts 241°
2026-04-29 19:53 20.29130 -56.21962 36032 ft 428 kts 242°
2026-04-29 19:54 20.24404 -56.30003 36031 ft 428 kts 241°
2026-04-29 19:54 20.21227 -56.35404 36028 ft 429 kts 241°
2026-04-29 19:55 20.18075 -56.40755 36027 ft 428 kts 241°
2026-04-29 19:55 20.14931 -56.46090 36024 ft 429 kts 241°
2026-04-29 19:56 20.11752 -56.51477 36024 ft 428 kts 242°
2026-04-29 19:56 20.08592 -56.56829 36023 ft 430 kts 241°
2026-04-29 19:57 20.05429 -56.62179 36022 ft 429 kts 242°
2026-04-29 19:57 20.02251 -56.67551 36038 ft 428 kts 241°
2026-04-29 19:58 19.99091 -56.72889 36038 ft 429 kts 241°
2026-04-29 19:58 19.95902 -56.78268 36037 ft 429 kts 241°
2026-04-29 19:59 19.92734 -56.83609 36034 ft 428 kts 241°
2026-04-29 19:59 19.89542 -56.88985 36036 ft 430 kts 241°
2026-04-29 20:00 19.86382 -56.94300 36035 ft 430 kts 242°
2026-04-29 20:00 19.83171 -56.99700 36034 ft 430 kts 241°
2026-04-29 20:01 19.80014 -57.05001 36032 ft 428 kts 242°
2026-04-29 20:01 19.76813 -57.10374 36032 ft 430 kts 241°
2026-04-29 20:02 19.73620 -57.15727 36032 ft 431 kts 241°
2026-04-29 20:02 19.70953 -57.20194 36030 ft 430 kts 241°
2026-04-29 20:03 19.67226 -57.26432 36031 ft 430 kts 241°
2026-04-29 20:03 19.64036 -57.31766 36029 ft 430 kts 241°
2026-04-29 20:04 19.60851 -57.37087 36028 ft 430 kts 241°
2026-04-29 20:04 19.57644 -57.42439 36027 ft 429 kts 242°
2026-04-29 20:05 19.54442 -57.47780 36027 ft 430 kts 241°
2026-04-29 20:05 19.51239 -57.53116 36025 ft 430 kts 241°
2026-04-29 20:06 19.48036 -57.58448 36025 ft 432 kts 241°
2026-04-29 20:06 19.44806 -57.63821 36025 ft 430 kts 241°
2026-04-29 20:07 19.41598 -57.69150 36038 ft 431 kts 241°
2026-04-29 20:07 19.38383 -57.74488 36038 ft 431 kts 241°
2026-04-29 20:08 19.35699 -57.78940 36037 ft 431 kts 241°
2026-04-29 20:08 19.31952 -57.85151 36034 ft 430 kts 240°
2026-04-29 20:09 19.28728 -57.90491 36038 ft 432 kts 241°
2026-04-29 20:09 19.25490 -57.95847 36033 ft 431 kts 240°
2026-04-29 20:10 19.22266 -58.01176 36033 ft 432 kts 241°
2026-04-29 20:10 19.19029 -58.06523 36033 ft 432 kts 241°
2026-04-29 20:11 19.15814 -58.11828 36031 ft 431 kts 241°
2026-04-29 20:11 19.12579 -58.17161 36030 ft 431 kts 241°
2026-04-29 20:12 19.09346 -58.22488 36029 ft 433 kts 240°
2026-04-29 20:12 19.06097 -58.27835 36029 ft 433 kts 241°
2026-04-29 20:13 19.02835 -58.33199 36028 ft 433 kts 241°
2026-04-29 20:13 18.99584 -58.38540 36025 ft 434 kts 241°
2026-04-29 20:14 18.96348 -58.43852 36023 ft 433 kts 241°
2026-04-29 20:14 18.93072 -58.49224 36022 ft 434 kts 240°
2026-04-29 20:15 18.89831 -58.54536 36023 ft 434 kts 241°
2026-04-29 20:15 18.86549 -58.59910 36020 ft 433 kts 241°
2026-04-29 20:16 18.83291 -58.65239 36018 ft 433 kts 240°
2026-04-29 20:16 18.80016 -58.70594 36037 ft 436 kts 240°
2026-04-29 20:17 18.76732 -58.75956 36031 ft 434 kts 240°
2026-04-29 20:17 18.73467 -58.81284 36029 ft 435 kts 240°
2026-04-29 20:18 18.70179 -58.86645 36030 ft 435 kts 240°
2026-04-29 20:18 18.66879 -58.92021 36023 ft 435 kts 240°
2026-04-29 20:19 18.63601 -58.97355 36028 ft 435 kts 240°
2026-04-29 20:19 18.60306 -59.02715 36026 ft 436 kts 240°
2026-04-29 20:20 18.57021 -59.08052 36023 ft 436 kts 240°
2026-04-29 20:20 18.53711 -59.13426 36025 ft 436 kts 240°
2026-04-29 20:21 18.50420 -59.18764 36015 ft 438 kts 240°
2026-04-29 20:21 18.47095 -59.24153 36022 ft 437 kts 240°
2026-04-29 20:22 18.43807 -59.29477 36015 ft 436 kts 240°
2026-04-29 20:22 18.40502 -59.34825 36016 ft 437 kts 240°
2026-04-29 20:23 18.37179 -59.40196 36019 ft 437 kts 240°
2026-04-29 20:23 18.33886 -59.45515 36014 ft 437 kts 240°
2026-04-29 20:24 18.30565 -59.50875 36010 ft 436 kts 240°
2026-04-29 20:24 18.27240 -59.56238 36016 ft 437 kts 240°
2026-04-29 20:25 18.23948 -59.61542 36005 ft 438 kts 240°
2026-04-29 20:25 18.20608 -59.66919 36025 ft 436 kts 240°
2026-04-29 20:26 18.17305 -59.72233 36023 ft 437 kts 240°
2026-04-29 20:26 18.13969 -59.77596 36020 ft 435 kts 240°
2026-04-29 20:27 18.11206 -59.82033 36020 ft 437 kts 240°
2026-04-29 20:27 18.07331 -59.88251 36013 ft 437 kts 240°
2026-04-29 20:28 18.04008 -59.93580 36021 ft 437 kts 240°
2026-04-29 20:28 18.00623 -59.98852 36009 ft 439 kts 235°
2026-04-29 20:29 17.96189 -60.03363 36013 ft 446 kts 226°
2026-04-29 20:29 17.91501 -60.07605 36012 ft 447 kts 226°
2026-04-29 20:30 17.86785 -60.11853 36012 ft 448 kts 226°
2026-04-29 20:30 17.82050 -60.16108 36013 ft 447 kts 225°
2026-04-29 20:31 17.77339 -60.20333 35947 ft 444 kts 226°
2026-04-29 20:31 17.74995 -60.22433 35610 ft 444 kts 225°
2026-04-29 20:31 17.72619 -60.24563 35057 ft 449 kts 225°
2026-04-29 20:32 17.70239 -60.26696 34464 ft 454 kts 225°
2026-04-29 20:32 17.67843 -60.28840 33973 ft 457 kts 225°
2026-04-29 20:32 17.65419 -60.31009 33570 ft 458 kts 225°
2026-04-29 20:32 17.63013 -60.33160 33195 ft 459 kts 224°
2026-04-29 20:33 17.60568 -60.35345 32796 ft 461 kts 224°
2026-04-29 20:33 17.58105 -60.37546 32370 ft 463 kts 224°
2026-04-29 20:33 17.55646 -60.39743 32003 ft 464 kts 224°
2026-04-29 20:33 17.53189 -60.41935 31714 ft 463 kts 224°
2026-04-29 20:34 17.50734 -60.44126 31356 ft 464 kts 224°
2026-04-29 20:34 17.48284 -60.46312 31008 ft 464 kts 224°
2026-04-29 20:34 17.45858 -60.48474 30508 ft 457 kts 224°
2026-04-29 20:34 17.43467 -60.50604 30004 ft 449 kts 224°
2026-04-29 20:35 17.41091 -60.52720 29466 ft 443 kts 223°
2026-04-29 20:35 17.38770 -60.54788 28926 ft 436 kts 223°
2026-04-29 20:35 17.36472 -60.56834 28396 ft 430 kts 223°
2026-04-29 20:35 17.34208 -60.58850 27871 ft 429 kts 223°
2026-04-29 20:36 17.31898 -60.60909 27315 ft 444 kts 223°
2026-04-29 20:36 17.29546 -60.63002 26735 ft 442 kts 223°
2026-04-29 20:36 17.27212 -60.65077 26167 ft 437 kts 223°
2026-04-29 20:36 17.24900 -60.67131 25609 ft 432 kts 223°
2026-04-29 20:37 17.22640 -60.69189 25041 ft 427 kts 226°
2026-04-29 20:37 17.20678 -60.71428 24494 ft 422 kts 231°
2026-04-29 20:37 17.18773 -60.73753 23926 ft 421 kts 231°
2026-04-29 20:37 17.16858 -60.76096 23356 ft 419 kts 231°
2026-04-29 20:38 17.14979 -60.78393 22798 ft 416 kts 231°
2026-04-29 20:38 17.13086 -60.80705 22232 ft 414 kts 231°
2026-04-29 20:38 17.11231 -60.82969 21684 ft 411 kts 231°
2026-04-29 20:38 17.09392 -60.85213 21130 ft 408 kts 231°
2026-04-29 20:39 17.07556 -60.87453 20560 ft 406 kts 231°
2026-04-29 20:39 17.05709 -60.89704 19988 ft 404 kts 231°
2026-04-29 20:39 17.03904 -60.91902 19424 ft 401 kts 231°
2026-04-29 20:39 17.02076 -60.94128 18851 ft 399 kts 231°
2026-04-29 20:40 17.00273 -60.96324 18284 ft 397 kts 230°
2026-04-29 20:40 16.98489 -60.98494 17719 ft 395 kts 230°
2026-04-29 20:40 16.96697 -61.00674 17155 ft 393 kts 230°
2026-04-29 20:40 16.94928 -61.02826 16598 ft 392 kts 230°
2026-04-29 20:41 16.93154 -61.04984 16039 ft 390 kts 230°
2026-04-29 20:41 16.91390 -61.07127 15483 ft 390 kts 230°
2026-04-29 20:41 16.89626 -61.09270 14931 ft 388 kts 230°
2026-04-29 20:41 16.87863 -61.11411 14378 ft 387 kts 230°
2026-04-29 20:42 16.86133 -61.13512 13837 ft 386 kts 230°
2026-04-29 20:42 16.84383 -61.15637 13308 ft 385 kts 230°
2026-04-29 20:42 16.82638 -61.17755 12784 ft 385 kts 230°
2026-04-29 20:42 16.80887 -61.19879 12239 ft 383 kts 229°
2026-04-29 20:43 16.79151 -61.21984 11696 ft 381 kts 229°
2026-04-29 20:43 16.77421 -61.24081 11154 ft 380 kts 229°
2026-04-29 20:43 16.75728 -61.26133 10877 ft 369 kts 229°
2026-04-29 20:43 16.74082 -61.28128 10795 ft 353 kts 229°
2026-04-29 20:44 16.72527 -61.30012 10686 ft 339 kts 229°
2026-04-29 20:44 16.71009 -61.31850 10552 ft 327 kts 229°
2026-04-29 20:44 16.69547 -61.33620 10412 ft 316 kts 229°
2026-04-29 20:44 16.68124 -61.35342 10275 ft 306 kts 229°
2026-04-29 20:45 16.66753 -61.37001 10143 ft 296 kts 228°
2026-04-29 20:45 16.65419 -61.38615 9826 ft 294 kts 228°
2026-04-29 20:45 16.64089 -61.40223 9436 ft 295 kts 228°
2026-04-29 20:45 16.62740 -61.41853 9062 ft 296 kts 228°
2026-04-29 20:46 16.61397 -61.43477 8707 ft 295 kts 228°
2026-04-29 20:46 16.60067 -61.45084 8359 ft 294 kts 228°
2026-04-29 20:46 16.58722 -61.46710 8008 ft 294 kts 228°
2026-04-29 20:46 16.57392 -61.48316 7662 ft 293 kts 228°
2026-04-29 20:47 16.56064 -61.49921 7316 ft 293 kts 227°
2026-04-29 20:47 16.54728 -61.51534 6969 ft 292 kts 227°
2026-04-29 20:47 16.53404 -61.53131 6626 ft 292 kts 227°
2026-04-29 20:47 16.52080 -61.54730 6281 ft 291 kts 227°
2026-04-29 20:48 16.50746 -61.56340 5935 ft 290 kts 227°
2026-04-29 20:48 16.49438 -61.57918 5598 ft 290 kts 227°
2026-04-29 20:48 16.48113 -61.59516 5256 ft 289 kts 227°
2026-04-29 20:48 16.46881 -61.61171 4918 ft 289 kts 233°
2026-04-29 20:49 16.45763 -61.62877 4577 ft 290 kts 234°
2026-04-29 20:49 16.44629 -61.64629 4248 ft 285 kts 234°
2026-04-29 20:49 16.43551 -61.66289 4210 ft 268 kts 234°
2026-04-29 20:49 16.42530 -61.67856 4109 ft 257 kts 233°
2026-04-29 20:50 16.41346 -61.69208 3790 ft 251 kts 209°
2026-04-29 20:50 16.39779 -61.69791 3670 ft 232 kts 181°
2026-04-29 20:50 16.38176 -61.69727 3448 ft 227 kts 168°
2026-04-29 20:50 16.36641 -61.69434 3218 ft 222 kts 163°
2026-04-29 20:51 16.35146 -61.69066 3027 ft 216 kts 162°
2026-04-29 20:51 16.33702 -61.68689 2851 ft 211 kts 161°
2026-04-29 20:51 16.32303 -61.68320 2678 ft 205 kts 161°
2026-04-29 20:51 16.31014 -61.67801 2502 ft 191 kts 139°
2026-04-29 20:52 16.30169 -61.66791 2356 ft 178 kts 120°
2026-04-29 20:52 16.29567 -61.65675 2204 ft 173 kts 114°
2026-04-29 20:52 16.29067 -61.64621 2054 ft 154 kts 114°
2026-04-29 20:52 16.28617 -61.63658 1933 ft 139 kts 113°
2026-04-29 20:53 16.28306 -61.62730 1883 ft 136 kts 101°
2026-04-29 20:53 16.28095 -61.61751 1805 ft 136 kts 100°
2026-04-29 20:53 16.27925 -61.60767 1584 ft 139 kts 99°
2026-04-29 20:53 16.27755 -61.59771 1275 ft 140 kts 100°
2026-04-29 20:54 16.27389 -61.57755 740 ft 142 kts 100°
2026-04-29 20:54 16.27193 -61.56734 541 ft 146 kts 101°
2026-04-29 20:54 16.26995 -61.55694 323 ft 147 kts 101°
2026-04-29 20:55 16.26804 -61.54637 88 ft 148 kts 100°
2026-04-29 20:55 16.26613 -61.53629 38 ft 126 kts 100°
2026-04-29 20:55 16.26476 -61.52887 39 ft 83 kts 101°
2026-04-29 20:55 16.26402 -61.52498 42 ft 20 kts 101°
2026-04-29 20:56 16.26379 -61.52372 44 ft 16 kts 101°
2026-04-29 20:56 16.26369 -61.52267 45 ft 13 kts 66°
2026-04-29 20:56 16.26444 -61.52222 45 ft 12 kts 13°
2026-04-29 20:56 16.26527 -61.52206 45 ft 11 kts 12°
2026-04-29 20:57 16.26607 -61.52190 45 ft 11 kts 11°
2026-04-29 20:57 16.26685 -61.52181 45 ft 10 kts 341°
2026-04-29 20:57 16.26727 -61.52242 44 ft 11 kts 281°
2026-04-29 20:57 16.26742 -61.52320 43 ft 11 kts 281°
2026-04-29 20:58 16.26758 -61.52405 43 ft 12 kts 280°
2026-04-29 20:58 16.26773 -61.52492 42 ft 12 kts 279°
2026-04-29 20:58 16.26788 -61.52572 41 ft 4 kts 281°
2026-04-29 20:58 16.26797 -61.52607 40 ft 4 kts 300°
2026-04-29 20:59 16.26818 -61.52615 40 ft 3 kts 13°
2026-04-29 20:59 16.26850 -61.52608 41 ft 6 kts
2026-04-29 20:59 16.26880 -61.52610 41 ft 2 kts 352°
2026-04-29 20:59 16.26888 -61.52611 41 ft 0 kts 353°